Hourly Weather Roundup
Issued by NWS

Home | Current Version | Previous Version | Text Only | Print | Product List | Glossary On
Versions: 1 2 3 4 5 6 7 8 9 10 11 12 13 14 15 16 17 18 19 20 21 22 23 24 25 26 27 28 29 30 31 32 33 34 35 36 37 38 39 40 41 42 43 44 45 46 47 48 49 50
000
NZUS43 KILX 081310
HWRCRS

NWR HOURLY WEATHER ROUNDUP
NATIONAL WEATHER SERVICE, LINCOLN IL
700 AM CST THU DEC 08 2016


CITY           SKY/WX    TMP DP  RH WIND       PRES   REMARKS
CHAMPAIGN      CLOUDY    20  13  74 W22       30.32R WCI   3
LAWRENCEVILLE  PTCLDY    23  14  68 W12       30.38R WCI  12
PEORIA         CLOUDY    19  10  68 W13G24    30.35R WCI   6
SPRINGFIELD    CLEAR     20  11  68 W16       30.37R WCI   6
$$


CITY           SKY/WX    TMP DP  RH WIND       PRES   REMARKS
BLOOMINGTON    FLURRIES  18  12  77 W20       30.31R WCI   2
DANVILLE       CLOUDY    20  13  74 W18G25    30.27R WCI   5
DECATUR        MOCLDY    19  12  74 W12       30.35R WCI   7
EFFINGHAM      PTCLDY    22  16  79 W13G18    30.40R WCI   9
FLORA          CLEAR     24  14  66 W14G20    30.40R WCI  12
GALESBURG      CLOUDY    17  11  77 W18       30.35R WCI   1
JACKSONVILLE   CLEAR     17  11  75 W18       30.40R WCI   1
LACON          CLEAR     17  10  74 W12G17    30.32R WCI   4
LINCOLN        CLOUDY    20  13  73 W10G21    30.36R WCI   9
LITCHFIELD     CLEAR     19  13  77 W14       30.40R WCI   6

CITY           SKY/WX    TMP DP  RH WIND       PRES   REMARKS
MACOMB         CLOUDY    18  12  78 W23G29    30.40R WCI   0
MATTOON        CLEAR     19  12  74 W12       30.34R WCI   7
MOLINE         MOCLDY    16   6  65 W20G33    30.34R WCI  -1
OLNEY          PTCLDY    23  14  68 W15G22    30.39R WCI  10
PARIS          PTCLDY    20  15  81 W16G26    30.34R WCI   6
PONTIAC        CLOUDY    21  13  73 W21G29    30.30R WCI   5
QUINCY         CLEAR     16   9  74 W17G23    30.41R WCI   0
RANTOUL        CLOUDY    21  15  75 W22       30.30R WCI   5
ROBINSON       CLEAR     22  14  72 W16       30.38R WCI   8
TAYLORVILLE    CLEAR     19  12  74 W16G22    30.38R WCI   4
TERRE HAUTE    PTCLDY    22  13  68 W12G21    30.33R WCI  10
$$


CITY           SKY/WX    TMP DP  RH WIND       PRES   REMARKS
BURLINGTON     CLOUDY    17  10  74 W14G24    30.38R WCI   3
CHICAGO        FLURRIES  19  11  70 W20G28    30.20R WCI   3
DES MOINES     PTCLDY    12   4  70 NW21G31   30.44R WCI  -7
EVANSVILLE     CLEAR     25  13  60 NW8       30.40R WCI  16
INDIANAPOLIS   PTCLDY    20  13  74 W16       30.27R WCI   6
KANSAS CITY    CLEAR     14   5  67 NW12      30.54R WCI   0
MILWAUKEE      CLOUDY    20   9  62 W16G22    30.14R WCI   6
ST LOUIS       PTCLDY    22  10  60 W16       30.44R WCI   8
$$





USA.gov is the U.S. government's official web portal to all federal, state and local government web resources and services.